Starlink 31621

operational
NORAD ID: 59465 Int'l Des: 2024-068 Owner: SPXS Country: US Constellation: starlink
LEOCIRCULAR

About Starlink 31621

Description loading...

Live Position

Loading 3D Globe...

Upcoming Passes

Altitude History

Altitude vs Time

uPlot chart will show altitude changes over time

Two-Line Element Set

1 59465U 24068L 25303.71582569 .00007926 00000-0 29717-3 0 9998
2 59465 43.0014 48.6617 0001446 278.8532 81.2156 15.27586745 88644
Epoch: Oct 30, 2025 • Age: 18 hours

Current Status

Altitude 486.4 km
Velocity 7.63 km/s
Sub-Earth Point 40.45°N, 91.39°W
Launch Date Apr 10, 2024
Age 1.5 years
Type internet

Technical Details

Classification Payload
Mass 730.00 kg
Dry Mass 700.00 kg
Total Mass 730.00 kg
Length 0.30 m
Diameter 4.10 m
Span 29.00 m
Shape Box + pan
Manufacturer SPXS
Bus Type Starlink V2M
Phase Status In Orbit
Owner/State SPXS/US

Large Constellations

Loading constellations...